Home   Weather   Olathe   Past weeks

Flag for USA Past Weather in Olathe, Kansas, USA — Yesterday and Last 2 Weeks

Now
49 °F

Sunny.


Feels Like: 48 °F
Forecast: 27 / 48 °F
Wind: 3 mph from Northeast

Location: Johnson County Executive Airport

Current Time: Dec 2, 2016 at 4:28:21 pm

Latest Report: Dec 2, 2016 at 3:53 pm


Visibility: 10 mi

Pressure: 30.28 "Hg

Humidity: 39%

Dew Point: 25 °F

Location of OlatheLocation

Past Weather in Olathe — Graph

°F

Olathe Temperature Yesterday

Maximum temperature yesterday: 43 °F (at 1:53 pm)
Minimum temperature yesterday: 27 °F (at 5:53 am)
Average temperature yesterday: 34 °F

High & Low Weather Summary for the Past Weeks

 TemperatureHumidityPressure
High74 °F (Nov 17, 2:53 pm)97% (Nov 23, 1:53 am)30.56 "Hg (Nov 23, 1:53 am)
Low27 °F (Nov 20, 6:53 am)34% (Nov 19, 3:53 pm)29.15 "Hg (Nov 28, 12:53 pm)
Average43 °F68%30.00 "Hg
* Reported Nov 17 2:53 pm — Dec 2 2:53 pm, Olathe, Weather by CustomWeather, © 2016

Note: Actual official high and low records may vary slightly from our data, if they occured in-between our weather recording intervals... More about our weather records

Advertising

Olathe Weather History for the Previous 24 Hours

Scroll right to see more
 ConditionsComfort  
Time TempWeatherWind HumidityBarometerVisibility
2:53 pm
Fri, Dec 2
49 °FSunny.No wind41%30.28 "Hg10 mi
1:53 pm49 °FSunny.5 mph41%30.28 "Hg10 mi
12:53 pm49 °FSunny.5 mph41%30.28 "Hg10 mi
11:53 am47 °FSunny.6 mph42%30.29 "Hg10 mi
10:53 am45 °FSunny.6 mph48%30.30 "Hg10 mi
9:53 am41 °FSunny.3 mph58%30.29 "Hg10 mi
8:53 am32 °FSunny.No wind85%30.28 "Hg10 mi
7:53 am29 °FSunny.No wind79%30.26 "Hg10 mi
6:53 am29 °FPassing clouds.3 mph79%30.23 "Hg10 mi
5:53 am28 °FPassing clouds.No wind85%30.22 "Hg10 mi
4:53 am28 °FPassing clouds.No wind81%30.20 "Hg10 mi
3:53 am29 °FPassing clouds.No wind79%30.18 "Hg10 mi
2:53 am29 °FOvercast.No wind85%30.18 "Hg10 mi
1:53 am28 °FOvercast.No wind81%30.16 "Hg10 mi
12:53 am27 °FClear.No wind81%30.15 "Hg10 mi
11:53 pm
Thu, Dec 1
33 °FClear.3 mph63%30.13 "Hg10 mi
10:53 pm31 °FClear.No wind69%30.12 "Hg10 mi
9:53 pm32 °FClear.No wind69%30.11 "Hg10 mi
8:53 pm32 °FClear.No wind73%30.10 "Hg10 mi
7:53 pm34 °FClear.No wind64%30.09 "Hg10 mi
6:53 pm35 °FClear.No wind61%30.08 "Hg10 mi
5:53 pm36 °FClear.No wind59%30.07 "Hg10 mi
4:53 pm40 °FSunny.3 mph51%30.06 "Hg10 mi
Weather by CustomWeather, © 2016

See weather overviewHow to use our weather pages